Regional Weather Roundup
Issued by NWS

Home | Current Version | Previous Version | Text Only | Print | Product List | Glossary On
Versions: 1 2 3 4 5 6 7 8 9 10 11 12 13 14 15 16 17 18 19 20 21 22 23 24 25 26 27 28 29 30 31 32 33 34 35 36 37 38 39 40 41 42 43 44 45 46 47 48 49 50
000
ASUS43 KDTX 171010
RWRMI
MICHIGAN HOURLY REGIONAL WEATHER ROUNDUP
NATIONAL WEATHER SERVICE DETROIT/PONTIAC MI
600 AM EDT WED SEP 17 2014

NOTE: "FAIR" INDICATES FEW OR NO CLOUDS BELOW 12,000 FEET WITH NO
SIGNIFICANT WEATHER AND/OR OBSTRUCTION TO VISIBILITY.

MIZ047>049-052>055-059>063-066>070-074>076-081>083-171100-
SOUTHEAST LOWER MICHIGAN

CITY           SKY/WX    TMP DP  RH WIND       PRES   REMARKS
ADRIAN         CLEAR     39  38  96 CALM      30.08S
ALMA           CLEAR     39  38  97 CALM      30.05S
ANN ARBOR      FOG       35  33  92 CALM      30.06S VSB 1/4
BAD AXE        PTCLDY    42  42 100 S3        30.04S
CARO           CLEAR     39  38  99 CALM      30.04F FOG
DETROIT CITY   MOCLDY    49  42  77 W3        30.06F
DETROIT        PTCLDY    47  42  83 CALM      30.06F
FLINT          CLEAR     42  39  89 CALM      30.06F
GROSSE ILE     CLEAR     46  45  93 CALM      30.05S
HILLSDALE      FOG       37  37 100 CALM      30.06F VSB 1/2
HOWELL         CLEAR     40  39  97 CALM      30.05F

CITY           SKY/WX    TMP DP  RH WIND       PRES   REMARKS
JACKSON        CLEAR     38  37  97 CALM      30.06F
LAMBERTVILLE   CLEAR     43  41  93 CALM      30.07S FOG
LANSING        CLEAR     41  38  89 CALM      30.06F
LAPEER         FAIR      38  38  98 CALM      30.05F FOG
MASON          CLEAR     39  38  98 CALM      30.06S FOG
MONROE         CLEAR     43  41  93 CALM      30.05S
MT. CLEMENS    CLEAR     43  40  86 CALM      30.04S
PONTIAC        PTCLDY    44  41  89 CALM      30.04S
PORT HOPE        N/A     48  43  82 SW7       30.00F
PORT HURON     FOG       39  39 100 CALM      30.05S VSB 1/4
TRI CITIES     CLEAR     44  40  85 SW6       30.04F
TROY           CLEAR     47  43  86 CALM      30.07S
SAGINAW HB     CLEAR     41  41 100 SW3       30.04S
$$
MIZ043>046-050>051-056>058-064>065-071>073-077>080-171100-
SOUTHWEST LOWER MICHIGAN

CITY           SKY/WX    TMP DP  RH WIND       PRES   REMARKS
BATTLE CREEK   CLEAR     41  37  86 CALM      30.07S
BENTON HARBOR  PTCLDY    39  39 100 CALM      30.06S
BIG RAPIDS     PTCLDY    38  38 100 CALM      30.03S
COLDWATER      CLEAR     40  39  97 CALM      30.07S FOG
FREMONT        FAIR      38  37  99 CALM      30.03F
HOLLAND        CLEAR     44  41  89 CALM      30.05F
GRAND RAPIDS   CLEAR     42  39  89 SE3       30.05F
IONIA          FAIR      40  39  95 CALM      30.04F
KALAMAZOO      PTCLDY    39  38  96 CALM      30.07S
LUDINGTON      CLEAR     39  38  97 CALM      30.02F
MARSHALL       CLEAR     35  35  97 CALM      30.06F FOG
MOUNT PLEASANT CLEAR     40  39  97 CALM      30.03S
MUSKEGON       CLEAR     42  38  85 SE3       30.04F
SOUTH HAVEN    PTCLDY    42  42  99 CALM      30.05F
$$
MIZ016>042-171100-
NORTHERN LOWER MICHIGAN

CITY           SKY/WX    TMP DP  RH WIND       PRES   REMARKS
ALPENA         CLEAR     46  43  89 SW5       29.98S
BEAVER ISLAND  CLOUDY    50  49  98 CALM      29.95S
BELLAIRE       MOCLDY    50  48  92 S3        29.99S
CADILLAC       CLEAR     35  35  99 CALM      30.02S
CHARLEVOIX     CLOUDY    57  52  85 SW6       29.99S
FRANKFORT      CLEAR     47  44  88 CALM      30.00S
GAYLORD        MOCLDY    46  44  93 SW5       29.98F
GRAYLING       CLEAR     46  46  99 CALM      30.00F
HARBOR SPRINGS CLOUDY    53  49  87 SW5       29.96S
HOUGHTON LAKE  CLEAR     47  45  93 W6        30.02S
MANISTEE       CLEAR     39  36  87 E3        30.02F
OSCODA         CLEAR     45  42  90 SW5       29.99S
PELLSTON       CLOUDY    47  46  97 CALM      29.95F
ROGERS CITY    MOCLDY    48  46  93 CALM      29.98S
TRAVERSE CITY  CLEAR     50  46  86 S5        29.98F
$$
MIZ007>008-015-171100-
EASTERN UPPER MICHIGAN

CITY           SKY/WX    TMP DP  RH WIND       PRES   REMARKS
KINROSS        MOCLDY    46  46 100 CALM      29.95F
MACKINAC ISLAN PTCLDY    48  47  97 E5        29.95F
NEWBERRY       PTCLDY    41  41  99 CALM      29.94F FOG
S. S. MARIE    MOCLDY    46  43  89 E5        29.95F
MUNISING         N/A     45  41  86 S6        29.92F
$$
MIZ004>006-011>014-085-171100-
CENTRAL UPPER MICHIGAN

CITY           SKY/WX    TMP DP  RH WIND       PRES   REMARKS
MANISTIQUE     PTCLDY    40  39  99 CALM      29.94F FOG
ESCANABA       CLOUDY    48  45  87 W3        29.95S
MENOMINEE      CLEAR     46  43  87 W5        29.97F
SAWYER-GWINN   MOCLDY    46  43  90 S5        29.93F
$$
MIZ001>003-009>011-084-171100-
WESTERN UPPER MICHIGAN

CITY           SKY/WX    TMP DP  RH WIND       PRES   REMARKS
IRON MOUNTAIN  CLOUDY    51  42  71 W7        29.95R
HOUGHTON       CLOUDY    47  44  90 CALM      29.89F
COPPER HARBOR    N/A     49  46  90 SW7       29.88F
IRONWOOD       PTCLDY    50  43  76 SW9       29.91F
$$

ABBREVIATIONS USED IN REMARKS
   TC - TEMPERATURE IN CELSIUS
  WCI - WIND CHILL INDEX
   HX - HEAT INDEX
  VSB - VISIBILITY



USA.gov is the U.S. government's official web portal to all federal, state and local government web resources and services.